Piney Island, NC

1:44 AM EDT on August 19, 2017 (GMT -0400)
Piney Island

Weather History for KNBT - June, 2012

Change the Weather History Date:

Monday, June 4, 2012

  Actual Average (KMRH) Record (KMRH)
Temperature  
Mean Temperature 78 °F -  
Max Temperature 84 °F 82 °F 92 °F (1991)
Min Temperature 72 °F 66 °F 53 °F (1976)
Cooling Degree Days 13    
Growing Degree Days 28 (Base 50)    
Moisture  
Dew Point 63 °F    
Average Humidity 63    
Maximum Humidity 79    
Minimum Humidity 44    
Precipitation  
Precipitation 0.00 in - - ()
Sea Level Pressure  
Sea Level Pressure 29.71 in    
Wind  
Wind Speed 9 mph (WSW)    
Max Wind Speed 16 mph    
Max Gust Speed 22 mph    
Visibility 10 miles    
Events      
Averages and records for this station are not official NWS values.
T = Trace of Precipitation, MM = Missing Value Source: NWS Daily Summary

Daily Weather History Graph

Daily Weather History Graph

Search for Another Location

Airport or City:

Trip Planner

Search our weather history database for the weather conditions in past years. The results will help you decide how hot, cold, wet, or windy it might be!

Date:

Astronomy

Jun. 04, 2012 Rise Set
Actual Time 5:52 AM EDT 8:16 PM EDT
Civil Twilight 5:22 AM EDT 8:46 PM EDT
Nautical Twilight 4:46 AM EDT 9:22 PM EDT
Astronomical Twilight 4:06 AM EDT 10:02 PM EDT
Moon 8:44 PM EDT (6/4) 5:56 AM EDT (6/4)
Length of Visible Light 15h 23m
Length of Day
14h 24m
Full, 100% of the Moon is Illuminated
Jun 4
Full
Jun 11
Last Quarter
Jun 19
New
Jun 26
First Quarter
Jul 3
Full

Hourly Weather History & Observations

Time (EDT) Temp. Heat Index Dew Point Humidity Pressure Visibility Wind Dir Wind Speed Gust Speed Precip Events Conditions
12:56 AM 72.0 °F - 61.0 °F 68% 29.83 in 10.0 mi SW 6.9 mph - N/A   Clear
1:56 AM 72.0 °F - 62.1 °F 71% 29.81 in 10.0 mi SW 9.2 mph - N/A   Clear
2:56 AM 72.0 °F - 62.1 °F 71% 29.80 in 10.0 mi WSW 8.1 mph - N/A   Scattered Clouds
3:56 AM 73.0 °F - 63.0 °F 71% 29.77 in 10.0 mi WSW 8.1 mph - N/A   Mostly Cloudy
4:56 AM 73.9 °F - 63.0 °F 68% 29.76 in 10.0 mi WSW 6.9 mph - N/A   Mostly Cloudy
5:56 AM 72.0 °F - 64.0 °F 76% 29.76 in 10.0 mi WSW 6.9 mph - N/A   Clear
6:56 AM 73.9 °F - 64.9 °F 73% 29.76 in 10.0 mi WSW 8.1 mph - N/A   Clear
7:56 AM 75.0 °F - 64.0 °F 69% 29.74 in 10.0 mi West 12.7 mph - N/A   Clear
8:56 AM 77.0 °F - 64.0 °F 64% 29.73 in 10.0 mi West 12.7 mph - N/A   Clear
9:56 AM 78.1 °F - 64.0 °F 62% 29.72 in 10.0 mi WSW 11.5 mph - N/A   Clear
10:56 AM 81.0 °F 82.2 °F 63.0 °F 54% 29.72 in 10.0 mi West 10.4 mph - N/A   Clear
11:56 AM 82.0 °F 82.7 °F 61.0 °F 49% 29.71 in 10.0 mi West 10.4 mph - N/A   Clear
12:56 PM 82.0 °F 83.1 °F 63.0 °F 52% 29.70 in 10.0 mi West 10.4 mph - N/A   Clear
1:56 PM 84.0 °F 84.5 °F 62.1 °F 47% 29.68 in 10.0 mi West 11.5 mph - N/A   Clear
2:56 PM 84.0 °F 84.0 °F 60.1 °F 44% 29.67 in 10.0 mi West 12.7 mph - N/A   Clear
3:56 PM 81.0 °F 81.9 °F 62.1 °F 52% 29.55 in 10.0 mi SW 10.4 mph 18.4 mph N/A   Mostly Cloudy
4:56 PM 80.1 °F 81.9 °F 64.9 °F 60% 29.65 in 10.0 mi WSW 13.8 mph - N/A   Overcast
5:56 PM 79.0 °F - 62.1 °F 56% 29.65 in 10.0 mi West 8.1 mph - N/A   Overcast
6:56 PM 80.1 °F 81.9 °F 64.9 °F 60% 29.65 in 10.0 mi West 11.5 mph - N/A   Partly Cloudy
7:56 PM 77.0 °F - 66.0 °F 69% 29.65 in 10.0 mi West 6.9 mph - N/A   Clear
8:56 PM 73.9 °F - 66.9 °F 79% 29.65 in 10.0 mi West 5.8 mph - N/A   Clear
9:56 PM 73.9 °F - 66.9 °F 79% 29.67 in 10.0 mi WSW 5.8 mph - N/A   Clear
10:56 PM 75.9 °F - 64.0 °F 67% 29.70 in 10.0 mi ENE 16.1 mph 21.9 mph N/A   Scattered Clouds
11:56 PM 75.0 °F - 60.1 °F 60% 29.72 in 10.0 mi NE 16.1 mph 21.9 mph N/A   Clear